SNUSAT-1 (42727 NORAD) Tracking and Keplerian Element Data

This shows tracking and keplerian element data for the satellite.

Feedback or suggestion? Click here.




ElementValue
Catalog42727
NameSNUSAT-1
Epoch Orbit6530
Epoch Day198.865235
Epoch Year2018
RAAN201.5604
Inclination51.6324
Eccentricity0.0005698
Argument of Perigee329.1555
Mean Anonmoly30.9107
Mean Motion15.70694497
Decay Rate0.00020752
L11 42727U 98067MG 18198.86523500 .00020752 00000-0 16837-3 0 9992
L22 42727 51.6324 201.5604 0005698 329.1555 30.9107 15.70694497 65307

Live tracking and technical data element details for SNUSAT-1 (NORAD 42727). SNUSAT-1 can be tracked NOW for your location showing map with azimuth and elevation plus other details from your city location.

Track the satellite on the map from your city or location and see movement details for azimuth, elevation, latitude, longitude, range, height, and movement on the map or in text.







IsCatalogInMostPopularTable: catalog: 42727, numindb: 91
Update: records affected: 1



GetName: 42727 SNUSAT-1

Hit Count: updated at: Wed, 18 Jul 2018 20:16:55 GMT